Weather History for Crestview, FL

Change the Weather History Date:

Monday, January 7, 2013

  Actual Average Record
Temperature  
Mean Temperature 48 °F -  
Max Temperature 61 °F - - ()
Min Temperature 36 °F - - ()
Degree Days  
Heating Degree Days 16    
Moisture  
Dew Point 36 °F    
Average Humidity 68    
Maximum Humidity 93    
Minimum Humidity 34    
Precipitation  
Precipitation 0.00 in - - ()
Sea Level Pressure  
Sea Level Pressure 30.27 in    
Wind  
Wind Speed 7 mph (NE)    
Max Wind Speed 12 mph    
Max Gust Speed 18 mph    
Visibility 10 miles    
Events      
T = Trace of Precipitation, MM = Missing Value Source: NWS Daily Summary

Daily Weather History Graph

Daily Weather History Graph

Search for Another Location

Airport:

Trip Planner

Search our weather history database for the weather conditions in past years. The results will help you decide how hot, cold, wet, or windy it might be!

Date:

Astronomy

Jan. 07, 2013 Rise Set
Actual Time 6:44 AM CST 5:00 PM CST
Civil Twilight 6:18 AM CST 5:27 PM CST
Nautical Twilight 5:48 AM CST 5:56 PM CST
Astronomical Twilight 5:19 AM CST 6:26 PM CST
Moon 2:12 AM CST (1/7) 1:08 PM CST (1/7)
Length of Visible Light 11h 09m
Length of Day
10h 16m
Waning Crescent, 22% of the Moon is Illuminated
Jan 7
Waning Crescent
Jan 11
New
Jan 18
First Quarter
Jan 26
Full
Feb 3
Last Quarter

Hourly Weather History & Observations

Time (CST) Temp. Windchill Dew Point Humidity Pressure Visibility Wind Dir Wind Speed Gust Speed Precip Events Conditions
12:55 AM 44.2 °F 39.7 °F 39.0 °F 82% 30.27 in 10.0 mi NNE 8.1 mph - N/A   Clear
1:55 AM 42.3 °F 37.3 °F 38.5 °F 86% 30.26 in 10.0 mi North 8.1 mph - N/A   Clear
2:55 AM 40.5 °F 37.3 °F 37.4 °F 89% 30.27 in 10.0 mi NNE 4.6 mph - N/A   Clear
3:55 AM 39.9 °F 35.1 °F 37.6 °F 91% 30.27 in 10.0 mi North 6.9 mph - N/A   Scattered Clouds
4:55 AM 39.4 °F 35.2 °F 37.0 °F 91% 30.26 in 10.0 mi North 5.8 mph - N/A   Mostly Cloudy
5:55 AM 38.1 °F 33.7 °F 35.8 °F 91% 30.27 in 10.0 mi North 5.8 mph - N/A   Partly Cloudy
6:55 AM 36.5 °F 31.8 °F 34.7 °F 93% 30.29 in 10.0 mi North 5.8 mph - N/A   Clear
7:55 AM 40.5 °F 38.4 °F 36.9 °F 87% 30.31 in 10.0 mi NE 3.5 mph - N/A   Clear
8:55 AM 46.4 °F 42.9 °F 36.3 °F 68% 30.32 in 10.0 mi ENE 6.9 mph - N/A   Partly Cloudy
9:49 AM 51.8 °F - 35.6 °F 54% 30.31 in 10.0 mi ENE 9.2 mph 18.4 mph N/A   Partly Cloudy
9:55 AM 51.8 °F - 34.7 °F 52% 30.33 in 10.0 mi East 11.5 mph 18.4 mph N/A   Partly Cloudy
10:55 AM 55.2 °F - 34.2 °F 45% 30.30 in 10.0 mi East 9.2 mph - N/A   Partly Cloudy
11:55 AM 58.5 °F - 33.1 °F 38% 30.26 in 10.0 mi Variable 5.8 mph - N/A   Partly Cloudy
12:57 PM 60.4 °F - 34.0 °F 37% 30.25 in 10.0 mi ENE 4.6 mph - N/A   Scattered Clouds
1:55 PM 59.4 °F - 34.9 °F 40% 30.23 in 10.0 mi NNE 8.1 mph - N/A   Scattered Clouds
2:55 PM 61.9 °F - 33.1 °F 34% 30.24 in 10.0 mi East 5.8 mph - N/A   Partly Cloudy
9:55 PM 45.1 °F - 37.4 °F 74% 30.27 in 7.0 mi Calm Calm - N/A   Mostly Cloudy
10:55 PM 44.8 °F 43.3 °F 36.3 °F 72% 30.23 in 7.0 mi NE 3.5 mph - N/A   Mostly Cloudy
11:55 PM 43.9 °F 42.3 °F 36.9 °F 76% 30.22 in 10.0 mi NE 3.5 mph - N/A   Mostly Cloudy